Wind_Speed
42 41 42 43 46 49 50 50 50 50 50 50 52 51 48 47 48 49 48 49 50 49 50 51 52 52 51 50 49 48 48 48 48 47 46 45 44 46 49 51 51 50 48 46 44 43 43 43 43 43 43 42 42 42 41 41 43 43 42 41 40 39 38 39 39 39 38 37 34 32 31 30 30 30
44 44 44 44 44 46 48 48 49 50 51 52 53 55 54 50 48 49 50 50 50 51 52 53 54 53 53 52 51 51 50 50 50 49 48 47 46 46 47 50 51 51 50 51 49 47 47 47 46 46 45 44 44 44 44 43 44 45 46 45 44 42 41 41 42 42 41 41 40 37 34 33 33 33
45 45 46 45 45 46 47 48 48 49 51 52 53 55 57 55 51 49 51 53 52 53 54 56 56 56 55 54 54 54 54 54 53 53 52 51 50 49 49 50 51 51 51 52 52 51 50 49 49 48 47 46 45 45 46 46 46 46 47 47 46 45 43 43 44 45 44 43 43 42 40 39 38 37
46 46 46 47 47 47 48 48 49 50 50 52 53 55 57 58 56 52 51 53 54 55 56 57 58 58 58 57 57 57 58 58 57 56 56 56 55 54 52 52 52 52 52 52 53 53 52 51 50 49 48 48 47 47 47 47 47 47 47 47 47 46 46 46 46 46 46 45 45 44 44 44 44 43
47 47 47 48 49 49 50 50 50 51 52 52 53 54 56 58 59 57 54 53 55 56 57 59 60 61 61 60 60 60 60 60 60 59 58 58 58 57 56 55 54 54 54 54 54 54 54 53 52 51 50 50 50 49 49 49 50 50 49 49 49 48 48 48 48 48 48 48 48 46 46 47 48 48
50 49 48 48 49 50 51 52 52 53 54 54 55 55 56 57 59 59 57 55 55 56 58 59 61 63 64 64 63 63 63 63 62 61 59 58 59 59 58 57 56 56 56 56 56 56 56 55 54 54 53 53 53 53 52 52 52 52 52 52 51 51 50 50 50 50 50 51 51 51 50 50 51 51
53 53 52 51 50 51 52 53 54 54 55 56 57 57 57 58 59 60 60 58 57 57 58 60 62 64 66 67 66 66 65 65 64 63 62 60 60 60 60 59 58 57 57 57 57 57 56 56 56 56 56 56 56 56 57 56 56 56 55 55 54 52 52 52 52 52 53 53 53 53 53 53 54 55
56 56 56 55 54 53 53 53 55 56 56 57 58 59 59 60 60 61 62 61 60 59 59 60 62 64 66 68 68 68 68 67 66 66 65 64 63 63 63 64 63 63 62 62 62 61 60 59 58 57 58 59 59 60 60 61 60 60 59 57 56 54 53 53 54 54 54 54 55 55 54 54 55 56
58 58 58 58 58 57 56 56 56 56 57 58 59 60 60 61 62 63 63 64 63 62 61 61 62 63 66 68 69 70 69 69 68 67 67 66 66 67 67 67 67 67 66 66 66 65 65 63 62 61 61 61 62 63 64 64 64 63 62 60 59 58 57 56 56 56 56 57 57 57 57 56 56 56
60 60 60 60 60 60 60 60 60 59 59 59 60 61 61 62 62 63 64 65 66 66 65 64 64 64 65 67 69 70 71 70 70 69 69 68 68 68 69 69 69 69 68 67 66 66 66 66 65 64 64 63 64 65 65 66 66 65 65 64 63 62 62 61 60 59 59 60 61 61 61 60 59 58
62 62 62 62 62 62 62 63 63 63 63 63 62 62 63 63 63 63 64 65 66 67 68 67 67 66 67 67 68 69 71 73 72 71 71 72 72 72 72 72 72 72 71 70 69 68 68 68 68 67 67 67 67 66 66 66 66 67 67 66 66 66 65 64 63 62 62 62 63 63 64 64 63 63
64 64 63 63 64 64 64 65 66 66 66 66 66 66 65 65 65 65 65 65 66 67 68 69 69 69 69 69 69 69 70 72 74 75 75 75 75 75 75 76 76 75 75 74 74 74 75 75 73 72 72 72 72 71 71 70 70 70 70 69 69 69 68 67 65 64 64 64 64 65 65 65 65 65
65 66 65 65 65 66 66 67 68 68 68 69 69 69 69 69 68 68 68 67 67 67 68 70 70 71 71 71 71 71 71 72 73 76 77 78 78 77 77 78 79 78 78 78 78 79 79 78 78 77 77 76 76 75 75 76 76 75 74 73 73 72 71 70 69 68 67 66 66 67 67 67 67 66
65 66 67 67 68 68 68 68 69 70 71 71 71 71 72 72 72 72 72 71 70 70 70 70 71 71 72 73 73 74 74 74 74 75 77 79 81 82 82 81 82 81 80 81 82 82 82 80 80 80 79 78 77 77 77 78 79 79 78 78 77 77 76 75 74 73 72 71 70 70 69 69 69 69
63 65 65 66 68 69 69 68 69 71 72 73 73 74 74 75 75 75 75 75 75 74 73 73 73 73 73 74 74 75 76 76 76 77 77 78 80 82 84 85 87 86 85 83 84 85 85 84 83 83 83 82 81 80 79 79 79 79 80 80 80 81 80 80 80 79 79 78 78 77 77 76 76 75
64 65 66 66 67 69 70 69 70 71 73 74 74 76 77 77 78 78 78 78 78 78 77 77 77 76 76 76 76 76 76 77 77 78 79 79 79 80 82 84 87 89 89 87 86 87 88 87 86 86 87 86 86 85 85 84 83 83 83 83 83 84 83 83 83 83 83 83 84 84 83 83 83 83
68 69 69 69 69 70 71 71 72 73 74 75 76 77 78 79 80 80 80 81 80 80 80 80 81 81 80 80 80 80 79 78 79 79 80 80 80 81 82 83 85 87 88 87 86 87 90 91 89 88 89 89 88 88 87 87 88 88 88 88 88 89 89 89 89 89 89 89 89 88 88 87 87 87
73 73 73 73 72 72 72 73 74 74 75 76 77 78 79 80 81 82 82 83 82 82 82 82 83 84 84 84 84 84 83 82 82 82 82 82 82 82 83 83 84 86 88 87 85 85 88 92 91 90 91 92 91 90 89 88 89 89 89 89 90 90 90 91 91 91 92 92 91 91 90 89 88 88
76 76 76 76 76 76 75 75 75 75 76 77 77 78 80 81 82 83 84 84 84 84 84 85 85 86 87 87 88 88 88 87 86 86 85 85 85 85 85 85 85 87 88 88 85 83 86 90 90 89 90 91 91 91 90 89 89 89 90 90 90 90 90 90 90 91 91 91 91 90 90 89 89 90
77 77 78 79 79 79 79 79 78 78 78 78 78 79 80 81 82 83 84 85 85 85 86 87 87 88 90 91 91 91 92 91 91 90 89 89 89 88 87 87 88 89 90 90 87 84 85 89 90 89 90 90 89 89 89 89 89 89 89 89 90 90 90 91 91 91 92 92 91 91 91 90 91 91
80 79 79 79 80 81 82 83 82 81 81 81 81 81 81 82 83 84 84 84 85 86 87 88 90 90 92 93 94 94 95 95 95 94 93 93 93 92 91 91 91 92 92 92 91 87 86 89 90 90 90 90 90 90 90 90 89 89 89 89 89 89 90 90 91 91 91 91 91 91 91 91 92 92
84 83 82 81 82 82 83 84 85 85 85 84 83 83 84 84 85 85 86 86 86 86 87 88 90 92 93 95 96 97 97 98 98 98 97 97 96 95 94 94 94 95 95 96 95 92 89 90 91 91 91 92 92 92 92 92 91 90 90 90 90 90 90 90 91 91 91 91 91 91 91 92 92 91
85 85 85 85 85 85 86 86 87 88 88 88 87 87 87 87 87 88 88 88 89 89 89 90 91 92 94 95 97 98 99 100 101 101 100 100 100 98 98 97 96 96 97 99 99 97 95 94 94 94 93 93 94 95 95 94 93 92 91 91 91 91 91 91 91 92 92 92 92 92 92 93 93 92
85 85 86 86 87 88 89 89 90 90 91 91 92 92 90 90 90 90 90 90 90 91 91 92 93 93 94 95 96 98 100 101 102 103 103 103 103 102 101 100 99 99 99 101 102 101 99 98 98 97 97 96 97 98 99 97 95 94 94 93 93 93 93 93 93 93 94 93 93 94 94 95 94 94
85 85 86 87 88 89 90 90 91 91 92 93 94 94 93 93 93 92 92 92 91 91 91 92 92 93 93 94 95 97 98 100 102 103 104 104 104 104 104 103 102 102 102 103 104 103 102 101 101 100 100 99 99 101 102 102 100 99 98 96 96 95 95 95 95 96 96 96 96 96 96 97 97 96
84 84 85 86 87 88 89 90 90 91 92 93 94 94 94 95 94 94 94 94 94 94 93 93 93 93 93 93 94 94 96 98 100 101 103 103 104 104 104 104 104 104 104 105 106 106 105 105 104 103 103 102 102 102 103 105 105 104 102 101 100 100 99 99 99 100 100 100 99 99 99 99 100 100
82 82 83 84 85 86 86 86 87 88 89 90 91 92 93 93 93 93 94 94 95 95 95 95 95 94 94 93 93 93 93 94 96 98 99 101 102 102 103 103 104 104 105 106 107 107 107 107 107 106 105 105 104 104 105 105 106 106 105 104 103 103 103 103 103 103 103 103 103 103 103 103 103 103
79 80 81 82 83 83 83 82 82 83 83 85 86 87 88 89 89 90 91 92 92 93 93 94 94 94 94 93 93 92 92 91 92 93 95 97 98 100 100 100 101 101 102 103 105 106 107 107 108 108 108 107 107 107 106 106 106 106 106 105 104 104 104 105 105 105 105 105 106 106 106 106 106 106
76 77 78 79 80 80 79 79 78 78 79 79 80 81 82 84 85 86 87 88 88 89 89 90 90 91 91 92 92 92 91 90 90 90 91 92 94 96 97 97 98 98 98 99 101 102 103 105 106 107 108 108 108 108 109 108 108 107 107 106 105 105 105 106 106 106 106 106 106 107 107 107 107 108
73 73 74 75 75 75 74 74 74 74 74 75 75 76 77 78 80 81 81 82 83 83 83 84 84 85 87 88 89 89 89 89 88 87 88 88 90 91 93 93 94 94 95 95 96 98 99 101 103 104 104 104 105 106 107 108 109 109 108 107 106 106 106 107 107 107 107 107 107 107 108 108 108 108
68 69 69 69 69 69 69 69 69 69 69 70 70 71 71 72 72 73 74 74 74 75 75 76 78 79 81 82 83 84 84 84 83 83 82 82 83 84 86 87 87 88 90 91 91 93 94 96 97 98 99 99 100 101 102 104 105 106 107 108 107 107 107 107 108 108 108 107 107 108 108 109 109 109
64 64 64 64 64 64 64 64 64 64 65 65 65 65 65 65 65 65 66 66 67 68 69 71 72 74 75 77 77 77 77 77 77 76 75 75 75 76 77 78 79 80 82 83 84 85 86 88 89 90 91 92 93 95 96 97 99 101 103 104 104 103 104 105 105 106 106 105 105 105 105 106 105 104
61 61 61 61 61 61 60 60 59 59 59 59 59 58 59 59 59 60 60 61 62 64 65 67 68 69 70 70 71 71 71 71 71 70 70 69 69 69 70 71 71 72 73 74 75 76 77 78 79 81 82 83 85 87 88 90 93 94 95 96 97 97 98 99 99 100 100 100 100 100 99 99 98 97
59 59 59 58 58 57 57 56 55 54 53 53 52 52 53 54 55 56 58 59 60 61 62 63 63 63 63 64 65 65 65 65 65 65 64 64 63 63 64 64 65 65 65 65 66 67 69 70 71 72 74 75 77 79 81 83 85 87 87 88 90 90 91 91 91 91 91 91 91 91 90 90 89 88
57 57 56 56 55 54 53 51 50 48 48 47 47 48 49 51 53 55 56 57 57 57 57 57 57 58 58 58 59 59 60 60 60 60 59 59 58 57 58 59 59 58 57 57 58 59 60 61 62 64 66 68 70 72 74 75 76 77 77 78 79 79 79 79 79 78 78 78 77 77 77 77 77 76
54 54 53 53 52 50 49 47 45 44 43 43 44 46 48 51 53 54 54 54 53 53 53 53 53 53 53 53 53 54 55 55 56 57 56 55 54 54 54 55 55 54 52 51 52 53 53 53 54 55 58 60 61 64 65 64 63 65 66 65 65 66 66 66 66 66 65 65 65 65 65 66 66 66
51 50 50 49 47 46 44 43 42 41 42 43 44 46 48 51 52 52 52 51 51 50 50 49 48 48 48 48 49 50 51 51 52 53 54 53 52 52 52 53 52 51 50 49 49 48 48 48 48 49 51 52 54 57 57 54 53 56 58 58 58 58 58 58 58 58 57 57 56 56 57 58 59 59
47 47 46 45 44 43 42 41 41 41 42 43 45 46 48 49 49 49 49 48 48 47 46 45 45 45 45 45 45 46 46 46 47 48 49 49 49 49 49 49 49 49 48 47 46 46 46 46 45 45 46 48 50 51 51 49 49 51 53 53 53 53 53 52 52 52 51 51 51 51 51 52 53 55
45 45 44 44 43 42 41 40 41 41 42 43 43 44 45 45 46 46 45 45 45 44 43 42 42 41 40 40 40 41 40 40 41 41 42 43 43 43 43 43 44 44 44 44 43 43 43 43 42 41 42 44 46 46 46 47 46 46 46 48 49 48 48 47 47 46 46 46 46 46 47 48 50 52
44 44 43 42 41 40 39 40 40 40 40 40 40 41 41 42 42 42 41 41 40 39 38 38 37 36 36 35 35 35 35 35 35 35 35 36 36 36 37 37 37 38 38 38 38 38 38 38 38 38 39 40 41 41 42 42 41 39 40 42 43 43 43 42 42 42 43 43 43 44 45 46 48 49
44 43 42 41 39 39 39 39 39 38 37 37 37 37 37 37 37 37 36 35 35 34 33 33 32 31 31 31 31 31 31 30 30 30 31 31 31 31 32 32 32 33 33 33 33 33 32 32 33 34 34 35 36 36 37 37 37 35 35 37 38 38 39 40 40 40 41 41 41 42 43 45 46 45
43 42 41 39 38 38 38 38 36 35 34 34 34 34 33 33 33 32 31 30 30 29 29 28 28 28 28 28 28 28 28 27 27 27 27 27 27 27 28 28 29 29 29 29 29 28 28 28 29 30 30 31 32 33 33 34 33 32 32 33 34 36 38 39 39 39 39 39 39 40 41 42 41 40
41 40 39 37 36 36 36 34 33 31 31 31 30 30 29 28 28 27 26 25 25 25 25 25 25 25 25 25 26 26 25 25 24 24 24 24 24 24 24 25 25 25 26 26 26 25 25 26 27 27 28 29 29 30 30 31 31 30 30 31 33 35 37 37 36 35 36 36 37 37 38 37 36 35
39 38 36 34 33 33 33 31 29 28 28 27 27 26 25 25 24 23 22 22 22 22 22 22 22 22 23 23 23 23 23 22 22 22 22 22 22 22 22 22 23 23 23 24 24 24 24 24 24 25 26 26 27 27 28 28 28 29 29 30 31 32 33 33 32 32 33 33 33 33 32 31 31 32
35 33 31 30 30 30 29 28 26 25 25 24 23 23 22 21 20 19 19 19 19 20 20 20 21 21 22 22 22 22 22 22 22 21 21 21 21 21 21 21 21 21 21 22 22 22 22 22 22 23 23 23 24 25 25 25 26 26 27 27 28 28 29 29 29 30 30 30 29 28 28 28 30 32
Wind_Direction
256 254 252 250 248 247 247 247 246 244 242 240 240 241 243 244 244 242 240 239 238 238 238 239 240 240 240 241 242 242 243 245 247 249 249 248 248 249 251 253 253 253 252 250 249 249 249 250 251 252 254 255 255 255 254 253 252 252 254 259 262 263 263 264 264 263 263 263 262 261 262 262 263 263
258 257 255 253 251 249 247 247 247 246 244 242 241 243 245 246 245 244 243 241 239 237 237 238 239 240 240 240 241 242 243 244 246 248 250 251 250 249 250 252 253 253 252 251 250 251 251 251 252 253 253 254 253 253 254 253 252 252 255 259 261 262 262 263 263 263 262 262 261 260 260 260 261 261
258 258 256 255 253 251 249 247 246 246 246 244 242 243 245 247 247 245 244 244 242 239 237 237 238 240 240 239 240 242 245 246 247 248 250 251 252 251 251 251 252 252 252 251 251 252 252 252 252 252 253 253 253 252 253 254 254 255 256 258 260 261 262 262 262 263 262 262 261 260 259 259 259 260
258 258 257 256 254 253 251 249 248 247 246 246 245 244 244 247 248 247 244 244 245 243 240 239 239 240 240 240 240 242 244 246 248 250 252 252 252 252 251 250 250 251 251 252 252 253 252 252 252 252 253 254 253 253 252 253 255 256 257 258 259 260 262 262 262 263 263 264 263 262 261 259 258 259
256 257 257 256 255 254 254 252 250 249 248 247 247 246 245 246 248 249 246 244 245 245 244 242 241 241 241 241 242 243 244 246 248 250 252 253 253 253 252 250 249 249 250 250 251 252 252 252 251 252 253 253 253 253 253 253 254 255 256 257 258 259 260 261 262 262 263 264 265 265 264 263 261 260
254 254 255 256 255 255 254 254 253 251 250 249 249 248 247 246 247 249 249 246 245 245 246 245 244 243 243 243 243 244 245 247 248 249 249 250 251 252 252 252 251 250 250 250 250 250 251 251 251 252 253 253 253 253 253 254 255 255 256 257 258 258 259 259 260 261 262 264 265 266 266 265 264 262
253 253 253 253 254 254 254 254 253 252 252 251 250 250 250 248 248 248 250 249 247 245 245 246 246 245 245 245 245 246 246 247 248 248 248 248 248 248 249 251 251 251 252 252 252 252 252 252 252 252 253 253 254 254 254 254 255 256 257 257 257 258 258 259 259 260 262 263 265 266 265 265 264 263
252 253 252 252 252 253 253 254 254 253 252 252 251 251 251 251 250 249 249 250 250 248 245 244 245 245 246 246 246 246 247 247 247 248 249 249 248 248 248 249 251 252 253 253 253 253 253 253 253 254 254 255 255 255 256 256 257 257 257 257 257 257 258 259 259 260 262 263 263 264 264 264 263 262
253 253 253 253 252 252 252 253 253 253 253 252 252 251 251 251 251 251 251 251 251 250 248 246 244 244 245 245 246 246 247 247 247 248 249 249 249 250 250 251 253 254 254 254 254 254 254 253 253 253 253 254 255 256 257 257 258 258 258 257 257 257 258 259 259 260 261 262 262 263 263 264 263 262
255 254 253 253 253 253 253 253 253 252 252 252 252 251 251 251 251 251 252 252 252 252 251 250 247 245 244 244 245 245 246 247 247 248 248 249 249 249 251 252 253 254 255 256 256 256 256 257 256 256 255 255 255 255 255 256 257 258 258 258 258 259 260 260 260 260 261 261 262 262 263 263 264 264
256 256 255 255 254 253 253 253 253 253 253 253 252 252 251 251 251 251 251 252 252 252 253 252 251 249 248 246 245 245 245 245 246 247 247 248 249 249 250 250 252 253 254 255 256 256 256 257 258 259 260 260 260 260 260 259 259 259 259 259 261 262 263 263 262 261 261 261 262 262 263 263 264 265
256 256 256 256 256 255 254 253 253 253 253 253 253 253 252 252 252 251 251 251 252 252 253 253 253 252 251 250 248 247 245 244 245 245 246 247 247 247 248 249 250 251 252 253 254 254 255 256 258 258 259 260 261 262 263 263 264 264 264 264 265 265 266 266 265 264 263 263 263 263 263 264 264 265
257 257 257 257 256 256 256 255 254 254 253 253 253 253 253 253 252 252 252 251 251 252 252 253 253 253 253 253 252 250 249 247 246 245 245 246 247 247 247 247 247 247 249 250 251 252 254 255 257 258 259 260 260 260 261 262 262 263 264 265 265 266 267 267 267 267 267 267 266 266 266 266 266 266
257 258 259 259 258 257 256 256 256 256 255 254 254 253 253 253 253 253 253 252 252 252 252 252 253 253 254 253 253 252 252 250 249 247 246 246 247 248 248 249 249 248 247 248 249 250 251 252 253 255 256 258 259 260 260 260 261 261 261 262 262 262 263 264 265 266 266 266 266 266 266 266 266 266
259 259 259 260 259 258 257 257 256 257 257 256 255 255 254 253 253 253 253 253 252 252 252 252 252 253 253 254 253 253 253 252 252 251 250 248 248 248 248 250 251 251 250 250 250 251 251 250 251 253 254 255 256 257 257 258 259 260 260 260 261 261 261 262 262 263 263 263 264 264 264 264 264 264
262 262 261 260 260 260 259 258 257 257 257 257 257 256 255 254 254 253 253 253 253 253 253 253 253 253 253 253 253 253 253 253 253 252 252 252 251 250 249 249 250 251 251 251 252 254 254 253 253 253 254 254 255 255 256 257 257 258 259 259 260 260 260 261 261 261 262 263 263 264 264 264 265 265
265 265 264 263 262 261 261 260 259 258 257 257 257 257 256 255 255 254 254 253 253 253 253 253 254 253 253 253 253 253 253 253 253 253 253 253 253 252 252 252 252 252 252 251 251 253 255 255 255 255 256 256 256 256 256 257 257 257 258 259 259 260 261 261 261 262 262 263 263 264 264 265 265 265
267 267 267 266 265 263 262 261 260 259 259 258 258 257 256 256 255 255 254 254 254 253 253 253 254 254 254 253 253 253 253 252 252 253 253 253 253 253 253 253 254 254 254 253 252 252 254 255 255 255 256 256 257 257 257 257 257 258 258 258 259 259 260 261 261 262 262 263 263 264 264 265 265 266
267 267 267 267 266 265 264 263 262 261 260 259 259 259 258 257 256 255 255 254 254 253 253 253 254 254 254 254 253 253 253 253 252 252 252 252 252 252 253 253 254 254 255 255 254 253 254 256 256 255 256 256 257 258 258 258 258 258 258 258 258 258 259 259 260 260 261 262 262 263 264 265 265 266
264 265 265 266 266 265 265 264 263 262 261 261 260 260 259 258 257 256 255 255 254 254 253 253 253 254 255 255 255 254 254 254 253 252 252 252 252 252 252 253 253 254 255 255 254 253 254 256 257 257 257 257 258 258 258 258 258 258 258 259 259 259 260 260 260 260 260 260 261 262 262 263 263 264
259 260 262 263 264 264 265 264 264 263 262 261 261 260 260 259 258 257 256 255 255 254 254 254 253 253 254 254 255 255 255 255 254 254 253 253 253 252 252 253 254 254 254 255 254 253 253 255 256 257 257 258 258 258 258 258 258 259 259 260 260 261 261 261 262 262 262 262 262 262 262 263 263 263
259 258 258 259 260 261 262 263 264 263 263 262 261 261 260 260 259 259 258 257 256 256 255 255 254 254 254 254 254 255 255 255 255 255 255 254 254 254 253 253 254 255 255 256 255 254 253 254 255 256 257 258 258 258 258 258 258 259 259 260 260 261 261 261 262 263 263 264 264 265 265 265 265 265
260 260 259 259 258 258 259 259 261 262 263 263 262 262 261 261 260 260 259 259 258 257 257 256 256 256 255 255 255 255 255 255 255 255 255 255 255 255 255 254 254 255 256 256 256 256 254 254 254 255 256 257 258 258 258 258 258 258 259 259 260 260 261 261 262 262 263 264 264 265 265 266 266 266
260 261 261 260 260 259 259 258 258 259 260 261 262 262 262 262 262 261 261 260 260 259 259 258 258 257 257 256 256 256 256 256 256 256 255 255 255 255 255 255 255 255 256 257 257 257 256 255 255 255 255 256 257 258 258 258 258 258 258 258 259 260 260 261 261 262 262 263 263 264 264 265 265 266
260 260 261 261 261 260 260 260 259 259 259 260 261 262 262 263 263 264 264 263 263 263 262 262 261 260 259 259 258 258 258 258 258 258 257 257 256 256 256 256 256 256 256 257 258 258 258 257 256 256 255 255 256 257 258 259 258 258 258 258 259 259 260 260 261 262 262 262 263 263 264 264 265 265
261 261 261 261 261 261 261 260 260 260 261 261 261 262 262 263 263 264 265 265 265 266 266 265 265 264 263 262 261 261 260 260 260 260 259 259 258 257 257 257 256 256 256 256 257 258 258 258 258 257 257 256 256 256 257 258 259 259 259 259 259 259 260 260 260 261 262 262 263 263 264 264 265 266
262 262 262 262 262 261 261 261 261 261 261 262 262 263 263 263 264 264 264 265 265 266 266 266 267 267 266 266 265 264 262 262 261 261 261 261 260 259 258 258 257 257 257 257 257 257 257 258 258 258 258 258 258 257 257 258 258 259 259 259 259 260 260 260 261 261 262 262 263 264 264 265 265 266
262 262 262 262 262 263 263 263 263 263 263 263 263 264 264 264 264 264 265 265 265 265 266 266 266 267 267 267 267 267 266 264 263 262 262 262 261 261 260 259 258 257 257 257 257 257 257 257 257 258 258 259 259 259 259 259 259 259 259 260 260 260 261 261 261 261 262 263 263 264 264 265 265 266
263 262 262 262 262 263 264 265 265 265 265 265 264 264 264 264 264 264 264 265 265 265 266 266 267 267 268 268 268 268 267 266 265 264 263 262 261 261 261 260 259 258 257 257 257 257 257 257 257 257 257 258 258 259 260 260 260 260 261 261 261 261 262 262 262 263 263 263 264 264 265 265 266 266
264 263 263 263 264 264 265 265 266 266 266 266 265 265 265 264 265 265 265 265 266 266 267 267 267 267 267 267 267 267 267 267 266 265 264 263 262 261 261 261 260 260 259 258 258 257 257 257 257 257 257 257 257 258 259 260 261 261 262 262 262 262 263 263 264 264 264 265 265 265 266 266 267 267
265 265 265 265 266 266 266 266 266 266 266 266 266 266 266 266 266 266 266 267 267 267 267 267 266 266 266 266 266 266 266 266 266 266 265 264 264 263 263 262 261 261 261 260 259 259 258 257 257 257 257 257 257 257 258 259 260 261 262 262 263 263 264 264 265 265 266 266 266 267 267 267 268 268
266 266 266 266 267 266 266 266 267 267 267 267 268 268 268 268 268 268 268 268 268 267 267 266 266 266 266 266 267 267 267 268 268 268 268 267 266 265 264 264 263 262 261 261 260 260 259 258 258 258 258 258 258 258 258 258 258 259 260 261 262 263 264 264 265 266 266 267 267 268 268 268 269 269
267 267 267 267 267 267 267 268 268 268 269 269 270 270 271 271 271 270 269 268 267 266 265 265 265 266 267 268 269 269 269 269 269 269 269 268 267 266 266 265 264 263 262 261 260 260 259 259 259 259 258 258 258 258 258 258 258 259 259 261 262 263 263 264 264 265 266 267 267 268 269 270 270 271
267 268 268 268 268 269 269 269 270 270 271 272 272 272 272 271 270 269 268 266 265 265 265 266 267 267 268 268 269 269 269 270 270 270 270 269 268 268 267 267 266 265 263 262 261 260 259 259 259 259 259 258 258 258 258 257 258 259 259 261 262 263 263 264 265 265 266 266 267 268 269 269 270 271
267 268 268 269 270 270 271 272 273 273 274 274 273 273 271 270 268 266 266 266 266 267 268 268 268 268 268 268 268 269 269 270 270 270 270 269 269 268 268 268 267 266 266 264 263 262 261 260 260 260 259 259 259 259 258 258 259 260 261 262 262 263 264 265 265 265 265 265 266 266 267 267 268 268
267 268 269 270 271 272 274 275 276 276 275 274 272 270 269 268 267 266 267 268 269 269 269 269 270 270 270 270 270 269 269 269 268 269 269 269 269 269 268 268 268 268 267 266 265 264 263 262 261 260 260 260 260 260 260 261 262 263 264 264 264 264 264 264 264 264 264 263 263 264 264 264 264 264
269 270 270 272 273 275 276 276 276 275 274 272 270 269 267 267 268 269 270 271 271 272 272 272 273 273 273 272 271 270 269 268 268 268 269 270 270 269 269 269 270 270 269 268 267 266 265 264 263 262 261 262 261 262 263 263 263 263 264 264 263 263 263 263 263 263 262 262 262 262 262 262 262 262
269 270 272 274 275 276 276 277 276 275 273 271 270 269 269 269 270 271 272 273 274 275 275 276 276 275 274 273 271 270 269 269 268 268 268 269 269 269 269 269 269 270 270 269 269 268 267 266 264 263 263 263 263 263 263 263 261 261 262 262 262 262 262 262 262 262 262 262 262 261 261 262 262 261
271 272 274 275 275 276 276 277 276 274 273 271 271 270 271 271 272 272 273 274 275 276 276 276 275 275 274 272 271 270 270 269 269 268 268 268 268 269 269 268 268 268 268 268 267 267 266 266 265 265 264 263 262 262 262 261 260 259 260 261 261 261 261 261 261 261 261 261 260 260 260 260 260 260
273 274 275 275 276 278 278 278 276 275 274 273 273 272 272 272 272 273 273 274 274 275 275 274 274 273 272 271 270 270 270 269 269 269 269 269 269 269 269 269 268 268 268 267 267 266 265 265 265 264 262 262 262 261 261 261 260 258 258 259 260 260 260 260 259 258 258 258 258 258 258 258 259 260
274 275 276 278 279 280 280 278 277 276 275 274 273 272 272 272 272 272 273 273 273 272 272 272 271 271 270 269 269 269 269 270 270 271 271 270 270 269 269 269 268 268 268 267 266 266 265 265 264 262 261 261 260 260 259 259 258 256 255 256 257 258 258 257 256 255 255 255 256 256 257 257 259 260
275 277 278 279 280 280 279 278 277 276 275 274 273 272 272 271 271 271 271 271 270 270 269 268 267 267 267 267 268 269 269 270 270 271 271 270 270 269 269 268 268 267 267 267 266 265 263 262 260 259 258 257 257 256 257 257 256 255 254 253 254 254 255 254 254 255 255 255 255 256 256 257 259 260
275 276 277 279 280 280 278 277 277 277 275 273 272 271 269 268 268 269 268 267 266 266 265 265 265 266 267 268 269 270 271 272 272 272 271 270 270 269 268 267 266 266 265 265 264 262 260 258 257 256 256 255 255 255 255 256 256 255 253 251 251 251 253 255 255 255 255 254 254 254 256 258 260 261
274 275 277 279 278 277 276 276 276 275 273 271 269 267 267 266 266 266 265 264 264 265 265 267 268 269 270 271 273 275 276 276 275 274 273 272 272 270 268 267 265 264 263 262 261 261 259 258 256 255 255 255 254 254 254 254 254 253 252 251 250 251 253 255 255 255 254 255 255 256 258 259 259 258
273 275 277 277 276 275 275 275 274 272 269 267 266 265 264 264 264 264 264 265 265 266 268 270 272 273 274 276 279 280 280 279 279 278 277 276 274 272 270 268 266 264 263 262 262 261 260 259 257 256 255 254 253 253 253 253 253 254 254 254 254 254 255 255 255 256 256 257 258 258 258 256 255 255
Height
10591 10592 10594 10595 10596 10598 10599 10600 10602 10604 10605 10607 10608 10609 10611 10612 10614 10616 10618 10621 10625 10629 10629 10629 10630 10633 10635 10637 10638 10640 10641 10642 10642 10643 10644 10646 10648 10650 10650 10651 10652 10654 10657 10659 10660 10661 10662 10663 10664 10664 10665 10666 10667 10668 10669 10669 10670 10671 10672 10673 10674 10675 10675 10676 10677 10677 10677 10677 10678 10678 10679 10679 10680 10679
10585 10586 10588 10589 10591 10592 10593 10594 10596 10597 10599 10601 10602 10603 10605 10606 10608 10610 10612 10614 10618 10621 10623 10623 10624 10626 10628 10631 10632 10633 10635 10636 10637 10638 10639 10640 10642 10644 10644 10645 10647 10649 10651 10653 10654 10656 10656 10657 10657 10658 10659 10660 10661 10661 10662 10663 10664 10665 10666 10667 10669 10669 10670 10671 10670 10671 10672 10672 10673 10674 10675 10675 10675 10674
10579 10580 10582 10583 10585 10586 10587 10588 10589 10590 10592 10594 10595 10597 10598 10600 10602 10603 10605 10607 10610 10614 10616 10617 10618 10619 10621 10624 10626 10627 10627 10629 10630 10632 10633 10635 10636 10637 10638 10639 10641 10642 10644 10646 10648 10649 10650 10650 10650 10651 10652 10653 10654 10655 10656 10657 10658 10659 10660 10661 10662 10663 10664 10665 10664 10665 10666 10667 10667 10669 10670 10671 10670 10669
10574 10575 10576 10578 10579 10580 10581 10582 10583 10584 10585 10587 10588 10590 10591 10593 10594 10597 10598 10600 10602 10606 10609 10610 10611 10612 10614 10616 10618 10620 10620 10621 10623 10625 10626 10628 10629 10630 10632 10633 10634 10636 10637 10639 10640 10641 10642 10643 10644 10645 10646 10646 10647 10648 10649 10650 10651 10652 10653 10654 10656 10657 10658 10659 10659 10659 10660 10661 10661 10663 10664 10665 10665 10664
10569 10570 10571 10572 10573 10574 10576 10577 10578 10579 10579 10581 10582 10583 10584 10586 10587 10589 10591 10593 10595 10597 10600 10603 10604 10605 10607 10609 10611 10612 10613 10614 10616 10618 10619 10620 10621 10623 10624 10626 10627 10628 10630 10632 10633 10634 10635 10636 10637 10638 10639 10640 10640 10641 10642 10643 10644 10645 10646 10648 10649 10651 10652 10652 10653 10653 10653 10654 10655 10656 10657 10658 10659 10659
10563 10564 10565 10566 10567 10568 10570 10571 10572 10573 10574 10575 10575 10576 10578 10579 10580 10582 10584 10586 10588 10590 10592 10594 10596 10597 10599 10601 10603 10604 10606 10607 10608 10610 10612 10613 10614 10615 10616 10617 10619 10621 10623 10624 10625 10626 10627 10629 10630 10631 10632 10633 10634 10635 10635 10636 10637 10638 10639 10641 10642 10644 10645 10646 10647 10647 10647 10647 10648 10649 10651 10651 10651 10652
10555 10557 10558 10560 10561 10562 10563 10565 10566 10567 10568 10569 10569 10570 10571 10572 10573 10575 10577 10578 10581 10583 10584 10586 10587 10589 10591 10592 10594 10596 10598 10600 10601 10602 10604 10605 10607 10607 10608 10609 10610 10613 10615 10616 10617 10619 10620 10622 10623 10624 10625 10626 10626 10627 10628 10628 10629 10630 10632 10633 10635 10637 10638 10639 10640 10640 10641 10641 10641 10642 10644 10644 10644 10645
10548 10549 10551 10553 10555 10556 10557 10558 10559 10561 10562 10562 10563 10564 10565 10565 10566 10568 10570 10571 10572 10574 10577 10578 10579 10580 10582 10584 10586 10588 10590 10592 10594 10595 10597 10598 10599 10600 10600 10601 10602 10604 10606 10607 10609 10610 10612 10614 10616 10617 10618 10618 10619 10620 10620 10620 10621 10622 10624 10625 10627 10629 10631 10632 10633 10634 10634 10635 10635 10635 10636 10637 10637 10638
10540 10542 10543 10545 10547 10549 10551 10552 10553 10554 10554 10555 10556 10557 10558 10559 10560 10561 10562 10563 10564 10566 10568 10570 10571 10573 10574 10575 10577 10580 10582 10584 10586 10588 10589 10590 10591 10591 10592 10592 10594 10595 10597 10598 10599 10601 10604 10606 10608 10609 10610 10611 10611 10612 10612 10612 10613 10614 10616 10618 10619 10621 10623 10624 10625 10626 10627 10627 10627 10627 10628 10629 10630 10631
10531 10533 10535 10537 10539 10541 10543 10544 10545 10546 10547 10548 10549 10549 10551 10552 10553 10554 10555 10555 10556 10557 10558 10560 10563 10565 10566 10567 10569 10572 10574 10575 10577 10579 10581 10582 10582 10583 10583 10584 10585 10586 10588 10589 10591 10593 10594 10596 10597 10599 10600 10601 10602 10603 10604 10605 10606 10607 10608 10610 10611 10613 10614 10616 10617 10618 10619 10619 10619 10619 10620 10621 10622 10623
10523 10525 10527 10529 10530 10532 10534 10535 10536 10538 10539 10540 10541 10542 10543 10544 10545 10546 10547 10547 10548 10548 10549 10550 10552 10555 10557 10559 10561 10564 10566 10566 10568 10570 10571 10572 10573 10574 10575 10576 10577 10579 10580 10582 10584 10585 10585 10585 10587 10589 10590 10591 10593 10594 10596 10597 10598 10599 10600 10602 10603 10604 10606 10607 10609 10610 10610 10611 10610 10611 10611 10612 10613 10614
10514 10516 10518 10520 10521 10523 10525 10526 10527 10528 10530 10531 10532 10533 10535 10536 10537 10538 10538 10539 10540 10540 10541 10541 10543 10545 10546 10549 10552 10554 10557 10558 10559 10561 10562 10562 10563 10565 10567 10567 10569 10571 10573 10575 10575 10575 10575 10576 10578 10581 10582 10583 10585 10586 10587 10588 10589 10590 10592 10593 10594 10595 10596 10597 10599 10600 10601 10602 10602 10602 10603 10603 10604 10605
10506 10507 10509 10511 10512 10513 10515 10516 10517 10518 10520 10521 10523 10524 10526 10527 10528 10529 10529 10530 10531 10532 10532 10533 10534 10535 10536 10538 10542 10544 10546 10548 10550 10552 10553 10552 10553 10556 10558 10557 10558 10562 10565 10566 10566 10565 10566 10568 10570 10571 10573 10574 10577 10579 10579 10579 10580 10581 10583 10584 10584 10585 10586 10587 10588 10590 10591 10592 10593 10593 10594 10595 10596 10596
10497 10498 10499 10501 10503 10503 10505 10507 10508 10509 10509 10511 10513 10514 10516 10517 10518 10519 10520 10521 10523 10523 10524 10524 10525 10526 10526 10528 10531 10533 10534 10537 10540 10541 10543 10544 10544 10546 10548 10547 10547 10552 10555 10557 10557 10556 10558 10561 10561 10561 10563 10564 10567 10569 10570 10570 10571 10572 10574 10575 10575 10576 10577 10578 10579 10580 10581 10582 10582 10583 10585 10586 10587 10588
10487 10488 10489 10491 10492 10492 10495 10497 10499 10499 10499 10500 10502 10504 10505 10506 10507 10509 10510 10511 10513 10514 10515 10516 10516 10517 10517 10518 10520 10522 10523 10526 10529 10530 10531 10534 10535 10536 10539 10538 10537 10539 10544 10547 10548 10547 10548 10552 10553 10552 10553 10555 10557 10559 10560 10560 10561 10562 10564 10565 10566 10566 10568 10569 10571 10571 10572 10573 10573 10574 10576 10577 10578 10579
10476 10477 10479 10482 10482 10482 10484 10487 10488 10489 10488 10489 10491 10492 10493 10494 10496 10498 10499 10501 10503 10505 10506 10507 10506 10507 10508 10508 10509 10511 10514 10516 10518 10519 10521 10523 10525 10526 10528 10528 10526 10525 10531 10538 10540 10537 10535 10540 10545 10544 10543 10544 10547 10549 10550 10551 10552 10553 10554 10555 10555 10556 10558 10559 10560 10562 10562 10563 10563 10564 10565 10567 10568 10569
10465 10466 10468 10471 10472 10472 10473 10475 10476 10477 10477 10477 10478 10479 10481 10483 10484 10486 10488 10489 10492 10495 10496 10497 10496 10496 10499 10499 10498 10500 10503 10506 10506 10508 10510 10511 10514 10516 10516 10517 10516 10514 10517 10526 10532 10530 10524 10525 10533 10536 10532 10532 10536 10538 10540 10541 10542 10543 10543 10544 10545 10546 10547 10548 10549 10550 10551 10552 10552 10553 10555 10557 10558 10558
10455 10456 10458 10460 10461 10462 10463 10463 10464 10464 10464 10464 10466 10467 10469 10470 10472 10474 10475 10477 10480 10483 10485 10486 10485 10484 10487 10488 10487 10487 10491 10494 10496 10497 10498 10500 10502 10504 10504 10506 10506 10504 10504 10511 10521 10524 10516 10511 10520 10525 10521 10520 10524 10527 10530 10531 10532 10532 10533 10533 10534 10535 10536 10537 10538 10538 10539 10540 10540 10542 10544 10546 10547 10547
10445 10446 10447 10448 10450 10450 10451 10451 10451 10452 10452 10453 10454 10455 10456 10458 10459 10461 10462 10464 10468 10471 10472 10473 10473 10473 10473 10475 10475 10475 10477 10481 10483 10484 10486 10488 10490 10492 10494 10495 10495 10493 10492 10496 10507 10516 10508 10500 10505 10512 10509 10509 10513 10515 10519 10521 10521 10521 10522 10522 10523 10523 10525 10526 10527 10527 10527 10528 10530 10531 10533 10534 10535 10534
10436 10436 10436 10437 10438 10438 10439 10439 10440 10440 10441 10442 10443 10443 10444 10445 10446 10447 10448 10451 10455 10457 10458 10460 10461 10461 10460 10460 10462 10463 10464 10466 10469 10471 10475 10475 10476 10480 10483 10484 10483 10482 10482 10483 10492 10503 10500 10491 10493 10498 10498 10500 10503 10504 10505 10508 10509 10509 10510 10511 10512 10513 10514 10515 10515 10515 10516 10518 10520 10521 10523 10524 10524 10523
10426 10426 10426 10426 10426 10426 10426 10427 10428 10429 10429 10430 10431 10432 10432 10433 10434 10434 10436 10439 10441 10442 10444 10446 10447 10448 10448 10447 10448 10450 10451 10452 10454 10458 10462 10462 10463 10468 10472 10472 10471 10471 10472 10472 10477 10487 10490 10484 10482 10486 10487 10489 10492 10492 10492 10494 10497 10499 10500 10501 10502 10502 10502 10502 10502 10503 10504 10506 10508 10510 10511 10512 10512 10512
10412 10414 10416 10416 10415 10414 10414 10414 10414 10415 10416 10418 10419 10420 10420 10421 10422 10422 10424 10426 10428 10429 10430 10431 10432 10433 10434 10435 10435 10436 10437 10439 10440 10443 10447 10448 10450 10455 10458 10460 10460 10460 10460 10459 10461 10471 10478 10475 10473 10476 10476 10477 10478 10479 10480 10482 10485 10488 10489 10489 10490 10491 10491 10491 10491 10491 10492 10493 10495 10497 10497 10497 10499 10501
10399 10401 10403 10404 10403 10402 10402 10402 10402 10402 10404 10405 10406 10406 10407 10409 10409 10409 10411 10413 10414 10415 10416 10417 10418 10419 10420 10421 10422 10422 10423 10425 10426 10429 10432 10434 10437 10441 10444 10446 10448 10450 10448 10445 10446 10454 10462 10463 10463 10465 10466 10466 10465 10464 10466 10470 10474 10477 10478 10478 10478 10478 10479 10480 10480 10480 10481 10482 10484 10484 10484 10484 10485 10488
10389 10390 10390 10390 10390 10390 10389 10389 10390 10391 10391 10391 10391 10392 10394 10396 10397 10397 10398 10399 10400 10401 10403 10403 10404 10405 10406 10408 10409 10410 10410 10411 10412 10414 10417 10420 10423 10426 10429 10431 10434 10437 10437 10433 10432 10438 10444 10448 10451 10452 10454 10456 10454 10450 10451 10456 10461 10463 10466 10467 10467 10467 10468 10469 10469 10469 10470 10471 10472 10473 10472 10472 10473 10475
10378 10379 10379 10378 10378 10377 10376 10377 10378 10379 10379 10379 10379 10381 10382 10383 10384 10385 10386 10386 10387 10389 10390 10390 10391 10392 10393 10394 10396 10397 10397 10397 10397 10399 10402 10405 10408 10411 10415 10417 10420 10423 10424 10421 10420 10423 10427 10431 10434 10437 10439 10443 10444 10441 10437 10440 10445 10448 10452 10455 10456 10457 10458 10458 10458 10457 10457 10459 10460 10461 10461 10461 10461 10463
10365 10367 10367 10366 10365 10364 10364 10365 10367 10367 10367 10367 10368 10369 10370 10371 10372 10373 10374 10374 10374 10375 10376 10377 10377 10377 10379 10380 10381 10382 10383 10384 10384 10384 10385 10387 10391 10395 10398 10401 10405 10408 10409 10408 10408 10409 10411 10414 10417 10420 10423 10426 10429 10430 10427 10426 10428 10432 10437 10441 10443 10444 10445 10446 10445 10445 10445 10446 10447 10448 10449 10449 10449 10449
10352 10353 10354 10353 10353 10353 10353 10354 10355 10355 10356 10356 10356 10356 10357 10359 10360 10361 10361 10362 10362 10362 10362 10363 10363 10363 10363 10364 10365 10367 10368 10368 10369 10369 10370 10371 10372 10376 10380 10384 10387 10391 10393 10393 10394 10395 10398 10399 10401 10404 10407 10410 10412 10415 10415 10414 10414 10417 10422 10426 10428 10429 10431 10431 10432 10433 10433 10433 10434 10435 10436 10437 10437 10437
10339 10340 10341 10341 10340 10340 10341 10343 10344 10344 10345 10345 10345 10346 10346 10347 10347 10348 10348 10348 10348 10349 10349 10349 10349 10349 10349 10349 10350 10350 10351 10352 10353 10354 10354 10355 10355 10356 10360 10364 10368 10373 10376 10377 10379 10380 10383 10385 10386 10388 10391 10394 10396 10398 10400 10401 10401 10403 10406 10411 10413 10415 10416 10416 10417 10418 10419 10420 10420 10421 10422 10423 10423 10423
10326 10327 10328 10328 10328 10329 10331 10332 10333 10333 10333 10333 10334 10334 10334 10334 10334 10334 10335 10335 10336 10336 10336 10336 10337 10337 10336 10335 10335 10335 10335 10335 10336 10337 10338 10338 10339 10339 10341 10345 10349 10353 10358 10361 10364 10365 10367 10369 10370 10372 10375 10379 10382 10383 10383 10384 10386 10388 10391 10395 10399 10400 10400 10400 10401 10403 10404 10406 10407 10407 10407 10408 10408 10408
10315 10315 10316 10317 10318 10319 10321 10322 10321 10321 10321 10322 10322 10322 10322 10322 10322 10322 10323 10323 10324 10324 10324 10325 10324 10324 10322 10321 10320 10320 10320 10320 10320 10321 10322 10323 10324 10324 10326 10329 10333 10336 10339 10344 10347 10350 10352 10353 10354 10356 10359 10363 10367 10369 10369 10370 10372 10373 10375 10378 10382 10385 10385 10385 10386 10388 10389 10391 10392 10393 10393 10393 10392 10392
10305 10305 10306 10307 10308 10309 10310 10311 10311 10311 10311 10311 10311 10311 10311 10311 10311 10312 10312 10312 10313 10312 10312 10312 10311 10309 10308 10307 10306 10306 10306 10306 10306 10307 10308 10310 10311 10311 10313 10316 10319 10321 10323 10327 10330 10333 10335 10337 10338 10341 10344 10347 10351 10355 10357 10358 10360 10360 10360 10361 10364 10368 10370 10371 10372 10373 10374 10375 10377 10378 10377 10377 10377 10377
10295 10295 10296 10297 10298 10299 10300 10301 10301 10301 10301 10301 10301 10301 10301 10301 10302 10302 10302 10302 10301 10301 10300 10298 10297 10296 10295 10294 10294 10294 10295 10295 10295 10295 10296 10298 10300 10300 10301 10303 10305 10307 10309 10311 10313 10316 10318 10321 10323 10327 10331 10334 10337 10339 10342 10345 10347 10347 10346 10347 10350 10353 10356 10357 10357 10358 10359 10361 10362 10362 10362 10362 10361 10363
10286 10286 10287 10288 10288 10289 10290 10291 10292 10292 10292 10292 10292 10292 10292 10292 10292 10292 10291 10290 10289 10288 10287 10286 10286 10285 10285 10285 10285 10285 10285 10285 10284 10285 10286 10287 10288 10289 10290 10291 10292 10294 10296 10297 10299 10301 10304 10307 10310 10314 10317 10321 10323 10325 10328 10331 10331 10332 10334 10336 10338 10340 10342 10343 10344 10345 10346 10347 10347 10347 10348 10349 10348 10349
10278 10278 10278 10279 10280 10280 10281 10282 10283 10284 10284 10284 10284 10284 10284 10283 10282 10281 10279 10278 10278 10277 10277 10277 10278 10278 10277 10277 10276 10276 10276 10275 10275 10275 10276 10277 10279 10280 10280 10281 10281 10282 10284 10286 10288 10289 10292 10296 10299 10302 10305 10307 10310 10312 10314 10316 10316 10318 10323 10326 10327 10328 10329 10329 10331 10332 10333 10334 10334 10334 10335 10336 10335 10335
10270 10271 10271 10271 10272 10272 10273 10274 10275 10276 10276 10276 10276 10276 10274 10272 10271 10269 10268 10268 10269 10270 10270 10270 10270 10269 10269 10269 10268 10268 10268 10268 10267 10267 10267 10268 10269 10271 10271 10271 10271 10271 10274 10277 10278 10279 10283 10286 10289 10292 10293 10295 10297 10298 10299 10302 10305 10308 10311 10314 10315 10316 10317 10317 10318 10319 10320 10321 10322 10322 10322 10322 10322 10322
10263 10264 10264 10265 10265 10266 10267 10268 10268 10269 10269 10268 10267 10266 10264 10262 10260 10260 10260 10261 10262 10262 10262 10261 10261 10261 10261 10261 10261 10260 10259 10259 10259 10258 10258 10259 10261 10262 10262 10262 10262 10262 10265 10267 10268 10270 10274 10277 10280 10282 10283 10284 10287 10286 10286 10292 10297 10298 10298 10301 10303 10303 10304 10304 10305 10306 10307 10308 10310 10311 10311 10310 10310 10311
10257 10257 10258 10258 10259 10260 10261 10261 10261 10261 10260 10259 10258 10257 10255 10253 10252 10253 10254 10254 10254 10254 10254 10254 10254 10254 10253 10253 10252 10251 10251 10251 10251 10250 10250 10251 10252 10253 10253 10253 10254 10255 10256 10258 10260 10262 10265 10267 10270 10272 10274 10275 10276 10275 10277 10284 10288 10287 10286 10288 10290 10290 10292 10293 10294 10295 10296 10298 10299 10300 10300 10300 10300 10300
10251 10251 10252 10252 10253 10254 10254 10254 10253 10253 10252 10250 10249 10249 10248 10247 10247 10246 10247 10247 10247 10246 10247 10247 10247 10246 10245 10245 10244 10244 10244 10244 10243 10243 10244 10244 10244 10245 10246 10246 10247 10248 10249 10251 10252 10254 10256 10258 10261 10264 10265 10266 10266 10267 10269 10274 10276 10276 10276 10277 10278 10279 10281 10283 10284 10285 10287 10288 10289 10290 10290 10290 10290 10290
10245 10246 10246 10246 10247 10247 10247 10246 10245 10244 10243 10243 10242 10242 10241 10241 10241 10240 10240 10240 10240 10240 10240 10240 10240 10239 10238 10238 10237 10237 10237 10237 10237 10237 10237 10237 10238 10238 10239 10240 10240 10241 10242 10244 10245 10247 10248 10250 10253 10256 10257 10257 10257 10258 10260 10262 10264 10267 10268 10268 10268 10270 10272 10273 10275 10276 10277 10278 10279 10280 10280 10280 10279 10279
10240 10239 10239 10240 10240 10240 10240 10239 10237 10237 10237 10236 10236 10235 10235 10234 10234 10234 10234 10234 10234 10234 10234 10234 10234 10233 10232 10232 10231 10231 10231 10231 10231 10231 10231 10232 10232 10233 10233 10234 10234 10235 10236 10237 10238 10240 10242 10244 10246 10247 10248 10248 10249 10250 10252 10253 10255 10259 10261 10260 10260 10262 10263 10264 10266 10267 10268 10269 10270 10271 10271 10271 10270 10271
10233 10233 10233 10233 10234 10233 10232 10231 10231 10231 10231 10230 10229 10229 10229 10229 10228 10229 10229 10229 10229 10229 10229 10228 10228 10228 10227 10226 10226 10226 10226 10226 10226 10227 10227 10227 10228 10228 10228 10228 10229 10230 10230 10231 10232 10234 10236 10237 10239 10240 10240 10241 10242 10243 10244 10245 10248 10251 10253 10253 10253 10254 10255 10256 10258 10259 10260 10262 10263 10263 10263 10263 10264 10265
10227 10227 10227 10227 10227 10227 10226 10225 10225 10225 10225 10224 10224 10224 10224 10224 10223 10224 10224 10225 10224 10224 10224 10224 10224 10223 10223 10222 10222 10222 10222 10222 10222 10223 10223 10223 10223 10224 10224 10224 10224 10225 10225 10226 10227 10229 10230 10231 10232 10233 10234 10235 10236 10237 10238 10239 10241 10244 10246 10247 10247 10247 10247 10248 10250 10252 10253 10255 10255 10256 10256 10257 10258 10260
10221 10221 10222 10222 10221 10220 10219 10219 10220 10220 10219 10219 10219 10219 10219 10219 10219 10220 10220 10220 10220 10220 10219 10219 10219 10219 10218 10218 10218 10218 10218 10218 10219 10219 10219 10219 10220 10220 10220 10220 10220 10221 10221 10222 10223 10224 10225 10226 10226 10227 10228 10229 10230 10231 10233 10234 10235 10237 10239 10240 10241 10241 10241 10242 10244 10246 10247 10248 10249 10250 10250 10252 10254 10254
10216 10216 10216 10216 10216 10214 10214 10214 10215 10215 10214 10214 10215 10215 10215 10215 10216 10216 10216 10216 10216 10215 10215 10215 10215 10215 10214 10214 10214 10214 10215 10215 10215 10215 10215 10215 10215 10216 10216 10216 10217 10217 10217 10218 10218 10219 10220 10221 10222 10223 10224 10225 10226 10227 10228 10229 10230 10231 10233 10234 10235 10236 10236 10238 10239 10240 10241 10242 10243 10245 10246 10248 10248 10247
10211 10211 10211 10211 10210 10209 10209 10210 10210 10210 10210 10210 10211 10211 10211 10212 10212 10212 10212 10212 10212 10212 10212 10212 10212 10211 10211 10211 10211 10211 10211 10211 10211 10211 10211 10211 10212 10212 10212 10213 10213 10213 10214 10215 10215 10216 10217 10217 10218 10219 10220 10221 10222 10223 10224 10225 10226 10226 10228 10229 10230 10231 10232 10233 10234 10235 10236 10237 10239 10240 10241 10242 10241 10241